Regional Weather Roundup
Issued by NWS State College, PA

Home | Current Version | Previous Version | Graphics & Text | Print | Product List | Glossary Off
Versions: 1 2 3 4 5 6 7 8 9 10 11 12 13 14 15 16 17 18 19 20 21 22 23 24 25 26 27 28 29 30 31 32 33 34 35 36 37 38 39 40 41 42 43 44 45 46 47 48 49 50

000
ASUS41 KCTP 262203
RWRCTP

REGIONAL WEATHER ROUNDUP
NATIONAL WEATHER SERVICE STATE COLLEGE PA
500 PM EST MON JAN 26 2015

Note: "fair" indicates few or no clouds below 12,000 feet with no
significant weather and/or obstructions to visibility.

* = STATION THAT DOES NOT REPORT PRECIPITATION /E.G. RAIN...SNOW...ETC/
    THUNDER OR FOG.

PAZ002>004-007>009-013>016-020>023-029>032-262300-
WESTERN PENNSYLVANIA

CITY           SKY/WX    TMP DP  RH WIND       PRES   REMARKS
ERIE           CLOUDY    21  16  81 NE15      29.84R WCI   8
MEADVILLE      LGT SNOW  22  16  78 N8        29.76R WCI  12
FRANKLIN*      CLOUDY    23  18  80 N5        29.75R
NEW CASTLE     LGT SNOW  22  19  88 NW6       29.79R FOG     WCI  15
BEAVER COUNTY  LGT SNOW  25  21  86 NW7       29.75R
BUTLER*        CLOUDY    25  21  86 NW5       29.75R
PITTSBURGH INT LGT SNOW  25  22  88 NW10      29.74R WCI  15
PITTSBURGH     LGT SNOW  25  21  85 NW8       29.71R VSB 3/4
INDIANA*       CLOUDY    25  21  86 MISG      29.75R FOG
LATROBE        LGT SNOW  30  30 100 N6        29.71R
WASHINGTON CO* CLOUDY    27  21  80 CALM      29.76R
$$

PAZ004>006-010>012-017>019-024>028-033>037-041-042-045-046-049>053-262300-
CENTRAL PENNSYLVANIA

CITY           SKY/WX    TMP DP  RH WIND       PRES   REMARKS
BRADFORD       LGT SNOW  19  12  74 E9        29.71R WCI   8
DUBOIS         CLOUDY    21  16  81 E8        29.70R HAZE    WCI  11
CLEARFIELD     LGT SNOW  20  17  88 NE5       29.74R FOG     WCI  13
JOHNSTOWN      SNOW      22  18  85 E6        29.64R VSB 1/2 WCI  14
ALTOONA        LGT SNOW  21  18  88 NE8       29.71S FOG     WCI  11
STATE COLLEGE  LGT SNOW  21  19  93 NE8       29.76R FOG     WCI  12
WILLIAMSPORT   LGT SNOW  25  21  85 N3        29.81F VSB 1
SELINSGROVE    LGT SNOW  26  22  84 NE9       29.80F FOG
FT INDIANTOWN  CLOUDY    24  18  76 NE8       29.78S
CAPITAL CITY   CLOUDY    25  18  74 E13       29.79R WCI  14
HARRISBURG     FLURRIES  24  18  77 NE7       29.78S
YORK           CLOUDY    24  20  84 NE7       29.75S
$$

PAZ038>040-043-044-047-048-054-055-060>062-067>071-262300-
EASTERN PENNSYLVANIA

CITY           SKY/WX    TMP DP  RH WIND       PRES   REMARKS
SCRANTON       LGT SNOW  22  15  75 NE8       29.80F WCI  12
MOUNT POCONO   LGT SNOW  19  14  81 E21G28    29.74S VSB 3/4 WCI   3
ALLENTOWN      LGT SNOW  21  14  74 NE16      29.82S WCI   7
QUAKERTOWN*    NOT AVBL
READING        CLOUDY    22  15  75 NE9       29.79S WCI  12
LANCASTER      LGT SNOW  22  18  85 NE13      29.77R VSB 1   WCI  10
COATESVILLE    LGT SNOW  25  23  93 NE8       29.74S VSB 1
POTTSTOWN      LGT SNOW  24  19  81 NE9       29.80S WCI  14
BLUE BELL      CLOUDY    27  21  80 NE7G17    29.77S
DOYLESTOWN     CLOUDY    22  19  89 NE13G21   29.78S WCI  10
WILLOW GROVE   NOT AVBL
NORTH PHILA    MIX PCPN  26  18  71 NE17G28   29.80F WCI  13
PHILADELPHIA   CLOUDY    27  20  75 NE22G29   29.78R WCI  13
$$



USA.gov is the U.S. government's official web portal to all federal, state and local government web resources and services.